Regional Weather Roundup
Issued by NWS Upton, NY

Current Version | Previous Version | Text Only | Print | Product List | Glossary On
Versions: 1 2 3 4 5 6 7 8 9 10 11 12 13 14 15 16 17 18 19 20 21 22 23 24 25 26 27 28 29 30 31 32 33 34 35 36 37 38 39 40 41 42 43 44 45 46 47 48 49
000 ASUS41 KOKX 190005 RWROKX REGIONAL WEATHER ROUNDUP NATIONAL WEATHER SERVICE NEW YORK NY 700 PM EST THU DEC 18 2014 NOTE: "FAIR" INDICATES FEW OR NO CLOUDS BELOW 12,000 FEET WITH NO SIGNIFICANT WEATHER AND/OR OBSTRUCTIONS TO VISIBILITY. NYZ071-072-176-178-NJZ106-104-190100- NEW YORK CITY METRO AREA CITY SKY/WX TMP DP RH WIND PRES REMARKS CENTRAL PARK MOCLDY 39 25 57 NW10G20 29.98F WCI 32 LAGUARDIA APRT MOCLDY 39 27 62 NW18 29.96S WCI 30 KENNEDY INTL PTCLDY 40 25 55 NW18G25 29.96F WCI 31 NEWARK/LIBERTY MOCLDY 39 26 59 NW13G21 29.98S WCI 31 BRNX BOT. GARD N/A N/A N/A N/A W13 29.96F TETERBORO CLOUDY 39 26 59 NW8 29.97R WCI 33 $$ NYZ177-179-078>081-190100- LONG ISLAND NEW YORK CITY SKY/WX TMP DP RH WIND PRES REMARKS FARMINGDALE CLEAR 38 26 62 NW13 29.94F WCI 30 ISLIP CLEAR 37 26 64 NW10 29.92S WCI 30 SHIRLEY CLEAR 37 26 64 NW8 29.94R WCI 31 WESTHAMPTON CLEAR 37 26 64 W12 29.93S WCI 29 MONTAUK POINT N/A 41 29 62 NW14G22 29.91S $$ NYZ052-065-067-190100- HUDSON VALLEY CITY SKY/WX TMP DP RH WIND PRES REMARKS WHITE PLAINS MOCLDY 36 26 67 NW13G21 29.93R WCI 27 NEWBURGH PTCLDY 36 28 75 NW17 29.96R WCI 25 MONTGOMERY CLOUDY 36 27 69 CALM 29.95F POUGHKEEPSIE PTCLDY 37 25 61 W12 29.95S WCI 29 ALBANY CLOUDY 34 25 69 W22G30 29.97R WCI 22 $$ NJZ001-105-106-008-010-013-015-019>022-104-190100- NEW JERSEY CITY SKY/WX TMP DP RH WIND PRES REMARKS NEWARK/LIBERTY MOCLDY 39 26 59 NW13G21 29.98S WCI 31 TETERBORO CLOUDY 39 26 59 NW8 29.97R WCI 33 CALDWELL CLOUDY 37 25 61 NW8 29.98S WCI 31 MORRISTOWN MOCLDY 39 27 60 NW7 29.99S WCI 34 SOMERVILLE MOCLDY 39 25 57 NW8G20 29.98R WCI 33 SUSSEX CLOUDY 36 26 67 NW3 29.97S ANDOVER N/A 36 26 67 N8 29.97S WCI 30 TRENTON MOCLDY 36 24 62 W8 30.00S WCI 30 MILLVILLE PTCLDY 34 25 69 W9 30.06R WCI 27 ATLANTIC CITY CLEAR 35 24 64 W10 30.03R WCI 27 WRIGHTSTOWN PTCLDY 36 25 64 W10 29.99R WCI 28 TOMS RIVER FAIR 36 25 64 W7 30.00S WCI 30 BELMAR CLEAR 36 21 55 W8 29.98R WCI 29 $$ PAZ047>061-062-071-190100- EASTERN PENNSYLVANIA CITY SKY/WX TMP DP RH WIND PRES REMARKS PHILADELPHIA MOCLDY 37 24 59 W9 30.06R WCI 30 ALLENTOWN CLOUDY 37 24 59 W10 30.00F WCI 30 SCRANTON CLOUDY 35 26 69 NW12 30.00R WCI 27 $$ CTZ002-004>006-009-010-012-RIZ004-006-007-MAZ004-011-015-190100- SOUTHERN NEW ENGLAND IN CT CITY SKY/WX TMP DP RH WIND PRES REMARKS BRADLEY INTL MOCLDY 37 25 61 NW8 29.90S WCI 31 HARTFORD PTCLDY 37 26 64 VRB6 29.91F WCI 32 DANBURY PTCLDY 35 23 61 W7 29.94R WCI 29 WTRBRY/OXFORD CLEAR 36 21 55 NW8G20 29.90S WCI 29 BRIDGEPORT CLEAR 38 27 64 W7 29.94R WCI 33 MERIDEN CLEAR 34 26 72 W8 29.92R WCI 27 NEW HAVEN PTCLDY 42 27 55 W6 29.93R CHESTER FAIR 36 28 75 NW7 29.90S WCI 30 GROTON FAIR 36 27 69 NW7 29.90S WCI 30 WILLIMANTIC MOCLDY 37 25 61 NW7 29.90S WCI 32 IN RI CITY SKY/WX TMP DP RH WIND PRES REMARKS PROVIDENCE CLOUDY 38 26 62 W9 29.89R WCI 31 BLOCK ISLAND MOCLDY 39 25 56 NW14G24 29.88F WCI 31 WESTERLY MOCLDY 38 27 64 NW7 29.90S WCI 33 IN MA CITY SKY/WX TMP DP RH WIND PRES REMARKS BOSTON MOCLDY 40 28 62 W12 29.85R WCI 33 WORCESTER CLOUDY 33 27 78 W12 29.83R WCI 24 WESTFIELD MOCLDY 37 25 61 NW18G24 29.89S WCI 27 PROVINCETOWN CLOUDY 43 28 56 NW24G30 29.83R NANTUCKET CLOUDY 41 29 62 W12 29.85R $$ ANZ330-335-338-340-345-350-353-355-190100- COASTAL MARINE OBSERVATIONS STATION/POSITION TIME SKY/WX TEMP WIND PRES VSBY WAVE AIR SEA DIR/SP/G HT/PER (UTC) (F) (DEG/KT/KT) (MB) (MI) (FT/S) NY HARB ENTRANCE 0000 41 47 310/ 21/ 25 1014.2 4/ 4 4S FIRE IS 0000 46 N/A 3/ 5 20S FIRE ISLAND 2300 40 49 1014.0 5/ 5 23SW MTP 0000 N/A 5/ 6 HUDSON CANYON 0000 43 55 310/ 17/ 23 1013.9 7/ 6 EXECUTION ROCKS 0000 40 42 300/ 12/ 19 N/A WESTERN LI SOUND 0000 40 300/ 17/ 21 N/A 1/ 3 CENTRAL LI SOUND 2300 41 45 310/ 16/ 19 N/A 3/ 5 EASTERN LI SOUND NOT AVBL ROBBINS REEF 0000 39 350/ 12/ 16 1013.5 $$ >>>>>>>>>>>>>>>>>>>>>>>>>>>> KEY <<<<<<<<<<<<<<<<<<<<<<<<<<< > < > SKY/WX - SKY CONDITION/PRESENT WEATHER < > TMP - TEMPERATURE IN FAHRENHEIT < > DP - DEWPOINT IN FAHRENHEIT < > RH - RELATIVE HUMIDITY IN PERCENT < > WIND - DIRECTION AND SPEED IN MPH < > PRES - MEAN SEA LEVEL PRESSURE IN INCHES OF HG < > WCI - WIND CHILL INDEX < > VSB - VISIBILITY IN MILES < > HX - HEAT INDEX < > TC - TEMPERATURE IN CELSIUS < > VRB - VARIABLE WIND DIRECTION < > < >>>>>>>>>>>>>>>>>>>>>>>>>>>> KEY <<<<<<<<<<<<<<<<<<<<<<<<<<<

USA.gov is the U.S. government's official web portal to all federal, state and local government web resources and services.